This is the latest recevied weather packets stored in our database for station/object KF5JED-13. If no packets are shown the sender has not sent any weather packets the latest 10 day(s).
| Time | Temp. | Humidity | Pressure | Rain* | Wind** | Luminosity | Snow |
|---|---|---|---|---|---|---|---|
| 1777821029 | 18.33° C | 47% | 1019.9 hPa | 0 mm | - | 522 W/m² | - |
| 1777820726 | 17.78° C | 47% | 1019.8 hPa | 0 mm | - | 504 W/m² | - |
| 1777820422 | 17.22° C | 48% | 1020.2 hPa | 0 mm | - | 487 W/m² | - |
| 1777820120 | 17.78° C | 48% | 1020.1 hPa | 0 mm | - | 466 W/m² | - |
| 1777819816 | 17.78° C | 48% | 1020.4 hPa | 0 mm | - | 445 W/m² | - |
| 1777819514 | 17.78° C | 49% | 1020.1 hPa | 0 mm | - | 421 W/m² | - |
| 1777819211 | 16.67° C | 51% | 1020.4 hPa | 0 mm | - | 400 W/m² | - |
| 1777818908 | 16.67° C | 51% | 1020.5 hPa | 0 mm | - | 385 W/m² | - |
| 1777818604 | 16.67° C | 51% | 1020.5 hPa | 0 mm | - | 366 W/m² | - |
| 1777818302 | 16.67° C | 52% | 1020.5 hPa | 0 mm | - | 342 W/m² | - |
| 1777817998 | 16.11° C | 53% | 1020.5 hPa | 0 mm | - | 317 W/m² | - |
| 1777817695 | 15.56° C | 54% | 1020.8 hPa | 0 mm | - | 298 W/m² | - |
| 1777817392 | 15.56° C | 54% | 1020.5 hPa | 0 mm | - | 278 W/m² | - |
| 1777817088 | 15° C | 56% | 1020.2 hPa | 0 mm | - | 265 W/m² | - |
| 1777816785 | 14.44° C | 57% | 1020.5 hPa | 0 mm | - | 255 W/m² | - |
| 1777816483 | 14.44° C | 59% | 1020.7 hPa | 0 mm | - | 239 W/m² | - |
| 1777816180 | 13.89° C | 60% | 1020.4 hPa | 0 mm | - | 228 W/m² | - |
| 1777815878 | 13.33° C | 62% | 1020.4 hPa | 0 mm | - | 212 W/m² | - |
| 1777815575 | 12.78° C | 64% | 1020.4 hPa | 0 mm | - | 197 W/m² | - |
| 1777815272 | 12.22° C | 65% | 1020.5 hPa | 0 mm | - | 182 W/m² | - |
| 1777814968 | 11.67° C | 66% | 1020.1 hPa | 0 mm | - | 165 W/m² | - |
| 1777814665 | 11.67° C | 67% | 1020.6 hPa | 0 mm | - | 148 W/m² | - |
| 1777814361 | 11.11° C | 68% | 1020.4 hPa | 0 mm | - | 131 W/m² | - |
| 1777814059 | 10.56° C | 69% | 1020.4 hPa | 0 mm | - | 120 W/m² | - |
| 1777813755 | 10.56° C | 71% | 1020.1 hPa | 0 mm | - | 112 W/m² | - |
* Rain latest hour (hover to see other rain measurements)
** Current wind speed in m/s (hover to see current wind gust speed)